Satellite: HRBE Catalog number: 37855 Epoch time: 14030.89074211 Element set: 705 Inclination: 101.7154 deg RA of node: 356.3819 deg Eccentricity: 0.0226591 Arg of perigee: 091.9449 deg Mean anomaly: 332.7478 deg Mean motion: 14.86937368 rev/day Decay rate: 8.861e-05 rev/day^2 Epoch rev: 12225 Checksum: 327
Satellite: RS-39 Catalog number: 38051 Epoch time: 14030.75206630 Element set: 207 Inclination: 051.6305 deg RA of node: 185.4650 deg Eccentricity: 0.0007401 Arg of perigee: 004.9455 deg Mean anomaly: 126.4708 deg Mean motion: 15.42873740 rev/day Decay rate: 3.5074e-04 rev/day^2 Epoch rev: 11277 Checksum: 277
Satellite: E-STAR Catalog number: 38079 Epoch time: 14031.00584495 Element set: 726 Inclination: 069.4646 deg RA of node: 344.8253 deg Eccentricity: 0.0496170 Arg of perigee: 190.1103 deg Mean anomaly: 168.9770 deg Mean motion: 14.76472832 rev/day Decay rate: 6.9846e-04 rev/day^2 Epoch rev: 10298 Checksum: 335
Satellite: GOLIAT Catalog number: 38085 Epoch time: 14030.82525510 Element set: 766 Inclination: 069.4701 deg RA of node: 349.8018 deg Eccentricity: 0.0510883 Arg of perigee: 192.6352 deg Mean anomaly: 166.1587 deg Mean motion: 14.72885003 rev/day Decay rate: 6.5053e-04 rev/day^2 Epoch rev: 10283 Checksum: 304
Satellite: HORYU-2 Catalog number: 38340 Epoch time: 14030.86475166 Element set: 746 Inclination: 098.2422 deg RA of node: 345.9510 deg Eccentricity: 0.0011474 Arg of perigee: 251.0328 deg Mean anomaly: 108.9659 deg Mean motion: 14.71744351 rev/day Decay rate: 2.164e-05 rev/day^2 Epoch rev: 9159 Checksum: 301
Satellite: RS-40 Catalog number: 38735 Epoch time: 14030.67913415 Element set: 473 Inclination: 082.4763 deg RA of node: 013.2770 deg Eccentricity: 0.0016319 Arg of perigee: 190.6143 deg Mean anomaly: 169.4585 deg Mean motion: 12.42556207 rev/day Decay rate: 2.4e-07 rev/day^2 Epoch rev: 6850 Checksum: 290
Satellite: PROITERES Catalog number: 38756 Epoch time: 14030.87124458 Element set: 531 Inclination: 098.2341 deg RA of node: 116.9205 deg Eccentricity: 0.0013565 Arg of perigee: 098.8091 deg Mean anomaly: 261.4563 deg Mean motion: 14.74608051 rev/day Decay rate: 7.78e-06 rev/day^2 Epoch rev: 7494 Checksum: 309
Satellite: BEESAT-3 Catalog number: 39134 Epoch time: 14030.89285052 Element set: 488 Inclination: 064.8763 deg RA of node: 212.3555 deg Eccentricity: 0.0014255 Arg of perigee: 330.2527 deg Mean anomaly: 029.7782 deg Mean motion: 15.02744940 rev/day Decay rate: 5.420e-05 rev/day^2 Epoch rev: 4301 Checksum: 285
Satellite: BEESAT-2 Catalog number: 39136 Epoch time: 14030.91349515 Element set: 479 Inclination: 064.8758 deg RA of node: 212.4402 deg Eccentricity: 0.0014478 Arg of perigee: 330.0978 deg Mean anomaly: 029.9333 deg Mean motion: 15.02448305 rev/day Decay rate: 4.833e-05 rev/day^2 Epoch rev: 4301 Checksum: 292
Satellite: CAPE-2 Catalog number: 39380 Epoch time: 14029.74173991 Element set: 76 Inclination: 040.5161 deg RA of node: 198.9718 deg Eccentricity: 0.0002401 Arg of perigee: 070.2899 deg Mean anomaly: 289.8231 deg Mean motion: 15.21559471 rev/day Decay rate: 5.260e-05 rev/day^2 Epoch rev: 1077 Checksum: 307
Satellite: TRLBLAZER Catalog number: 39382 Epoch time: 14030.75618714 Element set: 89 Inclination: 040.5017 deg RA of node: 191.6103 deg Eccentricity: 0.0004035 Arg of perigee: 345.2372 deg Mean anomaly: 014.8493 deg Mean motion: 15.25829431 rev/day Decay rate: 3.6513e-04 rev/day^2 Epoch rev: 1093 Checksum: 272
Satellite: ZACUBE-1 Catalog number: 39417 Epoch time: 14029.77257636 Element set: 205 Inclination: 097.7900 deg RA of node: 105.1131 deg Eccentricity: 0.0062319 Arg of perigee: 333.2178 deg Mean anomaly: 026.5832 deg Mean motion: 14.77371261 rev/day Decay rate: 1.694e-05 rev/day^2 Epoch rev: 1025 Checksum: 285
Satellite: TRITON-1 Catalog number: 39427 Epoch time: 14029.75361987 Element set: 58 Inclination: 097.7813 deg RA of node: 103.7068 deg Eccentricity: 0.0119658 Arg of perigee: 331.3829 deg Mean anomaly: 028.0840 deg Mean motion: 14.64765409 rev/day Decay rate: 1.127e-05 rev/day^2 Epoch rev: 1012 Checksum: 312
Satellite: DELFIN3XT Catalog number: 39428 Epoch time: 14029.46321242 Element set: 61 Inclination: 097.7807 deg RA of node: 103.1598 deg Eccentricity: 0.0130374 Arg of perigee: 332.4703 deg Mean anomaly: 026.9635 deg Mean motion: 14.62292570 rev/day Decay rate: 1.827e-05 rev/day^2 Epoch rev: 1005 Checksum: 282
Satellite: GOMX-1 Catalog number: 39430 Epoch time: 14030.43543687 Element set: 178 Inclination: 097.7765 deg RA of node: 103.4241 deg Eccentricity: 0.0157511 Arg of perigee: 330.5148 deg Mean anomaly: 028.7249 deg Mean motion: 14.56221047 rev/day Decay rate: 1.049e-05 rev/day^2 Epoch rev: 1016 Checksum: 279
Satellite: $50SAT Catalog number: 39436 Epoch time: 14029.77307493 Element set: 70 Inclination: 097.7924 deg RA of node: 105.8984 deg Eccentricity: 0.0029618 Arg of perigee: 347.0387 deg Mean anomaly: 013.0124 deg Mean motion: 14.85246564 rev/day Decay rate: 9.918e-05 rev/day^2 Epoch rev: 1029 Checksum: 327
Satellite: PUCPSAT-1 Catalog number: 39442 Epoch time: 14030.83423806 Element set: 53 Inclination: 097.7935 deg RA of node: 106.9841 deg Eccentricity: 0.0035319 Arg of perigee: 338.6455 deg Mean anomaly: 021.3300 deg Mean motion: 14.85005600 rev/day Decay rate: 2.319e-05 rev/day^2 Epoch rev: 923 Checksum: 273
/EX
participants (1)
-
Ray Hoad